Hourly Weather Bolshoe Goltino

Today, 2 August, Monday

Time Temperature Precipitation Wind Pressure Humidity
00:00 +16°C° 0 mm 1 mps 735 mmHg 70%
01:00 +16°C° 0 mm 1 mps 735 mmHg 70%
02:00 +16°C° 0 mm 1 mps 735 mmHg 71%
03:00 +16°C° 0 mm 1 mps 734 mmHg 73%
04:00 +16°C° 0 mm 1 mps 734 mmHg 74%
05:00 +16°C° 0 mm 1 mps 734 mmHg 75%
06:00 +18°C° 0 mm 2 mps 734 mmHg 69%
07:00 +20°C° 0 mm 2 mps 733 mmHg 62%
08:00 +22°C° 0 mm 3 mps 733 mmHg 55%
09:00 +24°C° 0 mm 3 mps 733 mmHg 55%
10:00 +25°C° 0 mm 4 mps 732 mmHg 54%
11:00 +26°C° 0 mm 4 mps 731 mmHg 54%
12:00 +27°C° 0.4 mm 5 mps 731 mmHg 58%
13:00 +27°C° 0.4 mm 5 mps 730 mmHg 62%
14:00 +27°C° 0 mm 5 mps 729 mmHg 66%
15:00 +26°C° 1.7 mm 5 mps 728 mmHg 74%
16:00 +23°C° 1.7 mm 5 mps 727 mmHg 81%
17:00 +22°C° 1.7 mm 5 mps 726 mmHg 89%
18:00 +21°C° 1.2 mm 5 mps 726 mmHg 90%
19:00 +20°C° 1.2 mm 6 mps 726 mmHg 91%
20:00 +20°C° 1.2 mm 6 mps 726 mmHg 91%
21:00 +17°C° 0.1 mm 6 mps 727 mmHg 93%
22:00 +16°C° 0.1 mm 6 mps 727 mmHg 94%
23:00 +15°C° 0.1 mm 6 mps 728 mmHg 95%

Tomorrow, 3 August, Tuesday

Time Temperature Precipitation Wind Pressure Humidity
00:00 +15°C° 0 mm 6 mps 729 mmHg 94%
01:00 +14°C° 0 mm 6 mps 730 mmHg 92%
02:00 +14°C° 0 mm 5 mps 730 mmHg 90%
03:00 +14°C° 0 mm 5 mps 731 mmHg 88%
04:00 +14°C° 0 mm 5 mps 731 mmHg 87%
05:00 +14°C° 0 mm 5 mps 732 mmHg 85%
06:00 +14°C° 0 mm 4 mps 732 mmHg 81%
07:00 +15°C° 0 mm 4 mps 733 mmHg 78%
08:00 +15°C° 0 mm 4 mps 733 mmHg 74%
09:00 +17°C° 0 mm 4 mps 733 mmHg 68%
10:00 +19°C° 0 mm 4 mps 734 mmHg 62%
11:00 +20°C° 0 mm 5 mps 734 mmHg 55%
12:00 +20°C° 0.3 mm 5 mps 734 mmHg 58%
13:00 +20°C° 0.3 mm 5 mps 734 mmHg 61%
14:00 +20°C° 0.3 mm 5 mps 734 mmHg 63%
15:00 +20°C° 0.2 mm 4 mps 734 mmHg 63%
16:00 +20°C° 0.2 mm 4 mps 734 mmHg 62%
17:00 +20°C° 0.2 mm 3 mps 734 mmHg 62%
18:00 +18°C° 0 mm 3 mps 735 mmHg 68%
19:00 +17°C° 0 mm 2 mps 735 mmHg 73%
20:00 +15°C° 0 mm 2 mps 735 mmHg 79%
21:00 +14°C° 0 mm 2 mps 736 mmHg 81%
22:00 +14°C° 0 mm 2 mps 736 mmHg 83%
23:00 +13°C° 0 mm 2 mps 736 mmHg 85%

Day after tomorrow, 4 August, Wednesday

Time Temperature Precipitation Wind Pressure Humidity
00:00 +13°C° 0 mm 2 mps 737 mmHg 87%
01:00 +13°C° 0 mm 1 mps 737 mmHg 88%
02:00 +13°C° 0 mm 1 mps 738 mmHg 90%
03:00 +13°C° 0 mm 1 mps 738 mmHg 90%
04:00 +13°C° 0 mm 1 mps 738 mmHg 89%
05:00 +13°C° 0 mm 1 mps 738 mmHg 89%
06:00 +14°C° 0 mm 1 mps 739 mmHg 81%
07:00 +16°C° 0 mm 1 mps 739 mmHg 72%
08:00 +19°C° 0 mm 1 mps 739 mmHg 63%
09:00 +20°C° 0.1 mm 1 mps 740 mmHg 58%
10:00 +20°C° 0.1 mm 2 mps 740 mmHg 52%
11:00 +21°C° 0.1 mm 2 mps 740 mmHg 47%
12:00 +21°C° 0 mm 2 mps 740 mmHg 45%
13:00 +21°C° 0 mm 2 mps 740 mmHg 44%
14:00 +21°C° 0 mm 2 mps 740 mmHg 43%
15:00 +21°C° 0 mm 1 mps 740 mmHg 48%
16:00 +20°C° 0 mm 1 mps 740 mmHg 53%
17:00 +20°C° 0 mm 1 mps 740 mmHg 57%
18:00 +19°C° 0 mm 1 mps 740 mmHg 59%
19:00 +18°C° 0 mm 1 mps 741 mmHg 61%
20:00 +16°C° 0 mm 1 mps 741 mmHg 63%
21:00 +15°C° 0 mm 1 mps 741 mmHg 65%
22:00 +15°C° 0 mm 1 mps 741 mmHg 67%
23:00 +14°C° 0 mm 1 mps 741 mmHg 69%

5 August, Thursday

Time Temperature Precipitation Wind Pressure Humidity
00:00 +13°C° 0 mm 1 mps 741 mmHg 70%
01:00 +11°C° 0 mm 0 mps 741 mmHg 72%
02:00 +11°C° 0 mm 0 mps 741 mmHg 74%
03:00 +12°C° 0 mm 1 mps 741 mmHg 73%
04:00 +13°C° 0 mm 1 mps 741 mmHg 71%
05:00 +13°C° 0 mm 1 mps 741 mmHg 69%
06:00 +14°C° 0 mm 1 mps 741 mmHg 66%
07:00 +16°C° 0 mm 1 mps 741 mmHg 63%
08:00 +18°C° 0 mm 1 mps 741 mmHg 60%
09:00 +16°C° 0.8 mm 1 mps 741 mmHg 71%
10:00 +15°C° 0.8 mm 1 mps 741 mmHg 83%
11:00 +14°C° 0.8 mm 1 mps 741 mmHg 94%
12:00 +14°C° 1.9 mm 1 mps 741 mmHg 95%
13:00 +14°C° 1.9 mm 2 mps 741 mmHg 96%
14:00 +14°C° 1.9 mm 2 mps 741 mmHg 98%
15:00 +13°C° 1.7 mm 3 mps 740 mmHg 98%
16:00 +13°C° 1.7 mm 3 mps 740 mmHg 98%
17:00 +13°C° 1.7 mm 3 mps 740 mmHg 98%
18:00 +13°C° 0.5 mm 3 mps 739 mmHg 98%
19:00 +13°C° 0.5 mm 3 mps 739 mmHg 98%
20:00 +13°C° 0.5 mm 3 mps 739 mmHg 98%
21:00 +14°C° 0.5 mm 2 mps 739 mmHg 98%
22:00 +14°C° 0.5 mm 2 mps 739 mmHg 98%
23:00 +14°C° 0.5 mm 2 mps 738 mmHg 99%

6 August, Friday

Time Temperature Precipitation Wind Pressure Humidity
00:00 +14°C° 0.2 mm 2 mps 738 mmHg 99%
01:00 +14°C° 0.2 mm 2 mps 738 mmHg 99%
02:00 +14°C° 0.2 mm 2 mps 738 mmHg 99%
03:00 +14°C° 0 mm 2 mps 738 mmHg 98%
04:00 +13°C° 0 mm 3 mps 738 mmHg 98%
05:00 +13°C° 0 mm 3 mps 738 mmHg 98%
06:00 +13°C° 0 mm 3 mps 738 mmHg 98%
07:00 +13°C° 0 mm 3 mps 738 mmHg 98%
08:00 +13°C° 0 mm 3 mps 738 mmHg 97%
09:00 +13°C° 0 mm 3 mps 738 mmHg 97%
10:00 +13°C° 0 mm 3 mps 738 mmHg 96%
11:00 +14°C° 0 mm 3 mps 739 mmHg 95%
12:00 +14°C° 0 mm 3 mps 739 mmHg 93%
13:00 +16°C° 0 mm 3 mps 738 mmHg 90%
14:00 +15°C° 0 mm 4 mps 738 mmHg 88%
15:00 +15°C° 0.8 mm 4 mps 738 mmHg 91%
16:00 +15°C° 0.8 mm 4 mps 738 mmHg 94%
17:00 +15°C° 0.8 mm 4 mps 738 mmHg 96%
18:00 +15°C° 0.3 mm 4 mps 738 mmHg 97%
19:00 +15°C° 0.3 mm 4 mps 737 mmHg 97%
20:00 +15°C° 0.3 mm 5 mps 737 mmHg 97%
21:00 +15°C° 1.3 mm 4 mps 737 mmHg 98%
22:00 +15°C° 1.3 mm 4 mps 737 mmHg 98%
23:00 +15°C° 1.3 mm 4 mps 737 mmHg 98%

7 August, Saturday

Time Temperature Precipitation Wind Pressure Humidity
00:00 +15°C° 2.2 mm 4 mps 736 mmHg 98%
01:00 +15°C° 2.2 mm 4 mps 736 mmHg 98%
02:00 +17°C° 2.2 mm 4 mps 736 mmHg 98%
03:00 +17°C° 1.8 mm 4 mps 736 mmHg 98%
04:00 +17°C° 1.8 mm 4 mps 736 mmHg 98%
05:00 +17°C° 1.8 mm 4 mps 736 mmHg 98%
06:00 +17°C° 0.2 mm 4 mps 736 mmHg 98%
07:00 +17°C° 0.2 mm 4 mps 736 mmHg 97%
08:00 +17°C° 0.2 mm 4 mps 736 mmHg 97%
09:00 +18°C° 0.1 mm 3 mps 736 mmHg 94%
10:00 +19°C° 0.1 mm 3 mps 736 mmHg 90%
11:00 +20°C° 0.1 mm 2 mps 736 mmHg 87%
12:00 +21°C° 0.4 mm 2 mps 736 mmHg 88%
13:00 +21°C° 0.4 mm 2 mps 736 mmHg 88%
14:00 +23°C° 0.4 mm 2 mps 736 mmHg 88%
15:00 +23°C° 0.7 mm 2 mps 736 mmHg 89%
16:00 +21°C° 0.7 mm 2 mps 736 mmHg 90%
17:00 +21°C° 0.7 mm 2 mps 736 mmHg 91%
18:00 +20°C° 0.2 mm 2 mps 737 mmHg 92%
19:00 +18°C° 0.2 mm 2 mps 737 mmHg 93%
20:00 +18°C° 0.2 mm 1 mps 738 mmHg 95%
21:00 +16°C° 0 mm 1 mps 738 mmHg 95%
22:00 +15°C° 0 mm 1 mps 738 mmHg 95%
23:00 +15°C° 0 mm 2 mps 739 mmHg 95%
Show more

We Need Your Consent

Meteoprog and our Service Providers may store and access personal data such as cookies, device identifiers or other similar technologies on your device and process such data to personalise content and ads, as well as provide social media features and to analyse the traffic.

  • Store and/or access information on your device

    Cookies, device identifiers or other information can be stored or accessed on your device for the purposes indicated above.

  • Personalised ads and content, ad and content measurement, audience insights, and products development

    Ads and content can be personalised based on a profile. More data can be added to better personalise ads and content. Ad and content performance can be measured. Insights about the audience who saw the ads and content can be derived. Such data can be used to develop or improve user’s experience, systems and software.

By clicking ‘I Agree’ you will allow the use of indicated cookies, device identifiers, web beacons or other similar technologies. Your settings can be changed in the browser on your device.

For certain purposes, legitimate interests may be relied on, rather than consent. You can read more about this in our Privacy and Cookie Policy.